Regional Weather Roundup
Issued by NWS Green Bay, WI

Home | Current Version | Previous Version | Graphics & Text | Print | Product List | Glossary Off
Versions: 1 2 3 4 5 6 7 8 9 10 11 12 13 14 15 16 17 18 19 20 21 22 23 24 25 26 27 28 29 30 31 32 33 34 35 36 37 38 39 40 41 42 43 44 45 46 47 48 49 50

000
ASUS43 KGRB 241900
RWRGRB

NORTH-CENTRAL AND NORTHEAST WISCONSIN REGIONAL WEATHER ROUNDUP
NATIONAL WEATHER SERVICE GREEN BAY WI
200 PM CDT SUN JUL 24 2016

WIZ005-009-010>012-018-019-242000-
NORTH CENTRAL WISCONSIN

CITY           SKY/WX    TMP DP  RH WIND       PRES   REMARKS
IRONWOOD       CLOUDY    81  66  61 W12G22    29.78R
MANITOWISH WTR NOT AVBL
ARBOR VITAE    NOT AVBL
EAGLE RIVER    NOT AVBL
LAND O LAKES   NOT AVBL
RHINELANDER    MOSUNNY   82  68  62 W10G20    29.84S
PHILLIPS       NOT AVBL
ANTIGO         NOT AVBL
TOMAHAWK       NOT AVBL
MERRILL        NOT AVBL
$$

WIZ013-073-242000-
NORTHEAST WISCONSIN

CITY           SKY/WX    TMP DP  RH WIND       PRES   REMARKS
IRON MOUNTAIN  CLOUDY    80  71  74 SW7       29.78S
MARINETTE      CLOUDY    79  75  87 VRB5      29.78F
$$

WIZ017-030-035>037-045-242000-
CENTRAL WISCONSIN

CITY           SKY/WX    TMP DP  RH WIND       PRES   REMARKS
MEDFORD        NOT AVBL
WAUSAU         MOSUNNY   82  72  71 NW5       29.82S
MOSINEE        PTSUNNY   81  73  78 W10       29.86R
MARSHFIELD     PTSUNNY   85  70  60 NW12      29.85S
WISC RAPIDS    PTSUNNY   86  71  60 NW12      29.85S HX  91
STEVENS POINT  NOT AVBL
WAUPACA        NOT AVBL
SHAWANO        NOT AVBL
CLINTONVILLE   NOT AVBL
WAUTOMA        PTSUNNY   86  78  77 W12       29.82S HX  98
$$

WIZ038-039-048-051-242000-
FOX VALLEY

CITY           SKY/WX    TMP DP  RH WIND       PRES   REMARKS
NWS GREEN BAY  CLOUDY    80  78  94 S6        29.79F
APPLETON       CLOUDY    81  79  94 SW7       29.80F
OSHKOSH        PTSUNNY   86  78  77 SW9       29.80F HX  98
FOND DU LAC    MOSUNNY   87  78  74 SW12      29.81F HX 100
$$

WIZ022-050-052-242000-
EAST CENTRAL WISCONSIN

CITY           SKY/WX    TMP DP  RH WIND       PRES   REMARKS
EPHRAIM        NOT AVBL
WASHINGTON ISL NOT AVBL
STURGEON BAY   CLOUDY    76  73  91 S14       29.80F
MANITOWOC      NOT AVBL
SHEBOYGAN      PTSUNNY   78  73  84 S9        29.82F
$$

LMZ563-521-522-541>543-242000-
LAKESHORE

STATION/POSITION TIME  TEMP    WIND        PRES    VSBY  WAVE
                       AIR SEA DIR/SP/G                  HT/PER
                 (UTC) (F)     (DEG/KT/KT) (MB)    (MI)  (FT/S)
SHEBOYGAN LKSHOR 1800   67     180/ 14/ 14 1010.6F
KEWAUNEE LKSHORE 1800   68     190/ 17/ 20 1009.7R
NORTHPORT PIER   1800   72     160/  5/ 10 1009.1S
N MID LAKE BUOY  1750   70 68  210/ 19/ 23 1008.4R         4/ 5
S GREEN BAY BUOY 1800   76 75  210/ 12/ 14   N/A
CHAMBERS ISLAND  1800   76     190/  4/ 10 1008.8S
MENOMINEE LKSHOR 1800   76     170/  8/ 11 1007.8F
$$




USA.gov is the U.S. government's official web portal to all federal, state and local government web resources and services.